Fort Wayne, IN

2:19 AM EDT on June 24, 2017 (GMT -0400)
Fort Wayne International

Weather History for KFWA - December, 2012

Change the Weather History Date:

Monday, December 3, 2012

  Actual Average Record
Temperature  
Mean Temperature 59 °F 33 °F  
Max Temperature 64 °F 41 °F 69 °F (1982)
Min Temperature 54 °F 26 °F -2 °F (1942)
Degree Days  
Heating Degree Days 6 32  
Month to date heating degree days 36 94  
Since 1 July heating degree days 1357 1311  
Cooling Degree Days 0 0  
Month to date cooling degree days 0 0  
Year to date cooling degree days 1108 809  
Growing Degree Days 8 (Base 50)    
Moisture  
Dew Point 56 °F    
Average Humidity 89    
Maximum Humidity 100    
Minimum Humidity 78    
Precipitation  
Precipitation T in 0.10 in 1.59 in (1990)
Month to date precipitation 0.09 0.29  
Year to date precipitation 26.47 35.86  
Snow  
Snow 0.00 in 0.20 in 4.60 in (1911)
Month to date snowfall 0.0 0.5  
Since 1 July snowfall 0.6 2.6  
Snow Depth 0.00 in    
Sea Level Pressure  
Sea Level Pressure 30.06 in    
Wind  
Wind Speed 10 mph (South)    
Max Wind Speed 18 mph    
Max Gust Speed 28 mph    
Visibility 4 miles    
Events Fog , Rain    
T = Trace of Precipitation, MM = Missing Value Source: NWS Daily Summary

Daily Weather History Graph

Daily Weather History Graph

Search for Another Location

Airport or City:

Trip Planner

Search our weather history database for the weather conditions in past years. The results will help you decide how hot, cold, wet, or windy it might be!

Date:

Astronomy

Dec. 03, 2012 Rise Set
Actual Time 7:48 AM EST 5:12 PM EST
Civil Twilight 7:18 AM EST 5:43 PM EST
Nautical Twilight 6:43 AM EST 6:17 PM EST
Astronomical Twilight 6:10 AM EST 6:50 PM EST
Moon 10:00 PM EST (12/3) 11:10 AM EST (12/3)
Length of Visible Light 10h 25m
Length of Day
9h 24m
Waning Gibbous, 78% of the Moon is Illuminated
Dec 3
Waning Gibbous
Dec 6
Last Quarter
Dec 13
New
Dec 20
First Quarter
Dec 28
Full

Hourly Weather History & Observations

Time (EST) Temp. Dew Point Humidity Pressure Visibility Wind Dir Wind Speed Gust Speed Precip Events Conditions
12:54 AM 55.0 °F 55.0 °F 100% 30.11 in 2.0 mi SSW 4.6 mph - N/A   Overcast
1:28 AM 55.4 °F 55.4 °F 100% 30.11 in 2.5 mi South 5.8 mph - N/A   Overcast
1:43 AM 55.4 °F 55.4 °F 100% 30.10 in 1.5 mi South 3.5 mph - N/A   Overcast
1:54 AM 55.0 °F 55.0 °F 100% 30.10 in 0.8 mi South 3.5 mph - N/A   Overcast
2:01 AM 53.6 °F 53.6 °F 100% 30.10 in 0.2 mi South 4.6 mph - N/A Fog Fog
2:11 AM 53.6 °F 53.6 °F 100% 30.10 in 0.1 mi South 6.9 mph - N/A Fog Fog
2:54 AM 55.0 °F 55.0 °F 100% 30.11 in 0.1 mi SSW 8.1 mph - N/A Fog Fog
3:09 AM 55.4 °F 55.4 °F 100% 30.11 in 0.2 mi South 6.9 mph - N/A Fog Fog
3:21 AM 55.4 °F 55.4 °F 100% 30.11 in 0.8 mi South 8.1 mph - N/A   Mist
3:32 AM 55.4 °F 55.4 °F 100% 30.11 in 1.0 mi South 6.9 mph - N/A   Overcast
3:54 AM 55.0 °F 55.0 °F 100% 30.12 in 1.5 mi SSW 5.8 mph - N/A   Overcast
4:10 AM 55.4 °F 55.4 °F 100% 30.11 in 2.0 mi SSW 5.8 mph - N/A   Overcast
4:29 AM 55.4 °F 55.4 °F 100% 30.10 in 2.0 mi SSW 3.5 mph - N/A   Overcast
4:54 AM 54.0 °F 54.0 °F 100% 30.10 in 2.0 mi SSE 3.5 mph - N/A   Mostly Cloudy
5:12 AM 53.6 °F 53.6 °F 100% 30.10 in 1.8 mi SSE 3.5 mph - N/A   Overcast
5:36 AM 53.6 °F 53.6 °F 100% 30.10 in 1.5 mi SSE 5.8 mph - N/A   Overcast
5:54 AM 54.0 °F 54.0 °F 100% 30.10 in 1.5 mi South 3.5 mph - N/A   Overcast
6:08 AM 53.6 °F 53.6 °F 100% 30.10 in 1.8 mi SSE 4.6 mph - N/A   Overcast
6:26 AM 55.4 °F 55.4 °F 100% 30.10 in 0.8 mi SE 6.9 mph - N/A   Overcast
6:43 AM 55.4 °F 55.4 °F 100% 30.10 in 0.2 mi SSE 8.1 mph - N/A Fog Fog
6:54 AM 54.0 °F 54.0 °F 100% 30.10 in 0.2 mi SE 6.9 mph - N/A Fog Fog
7:54 AM 55.0 °F 55.0 °F 100% 30.10 in 0.2 mi ESE 4.6 mph - N/A Fog Fog
8:03 AM 55.4 °F 55.4 °F 100% 30.09 in 0.1 mi SE 4.6 mph - N/A Fog Fog
8:30 AM 55.4 °F 55.4 °F 100% 30.09 in 0.1 mi SSE 8.1 mph - N/A Fog Fog
8:40 AM 55.4 °F 55.4 °F 100% 30.09 in 0.1 mi SSE 8.1 mph - N/A Fog Fog
8:54 AM 55.9 °F 55.9 °F 100% 30.09 in 0.2 mi SSE 8.1 mph - 0.00 in Fog Fog
9:07 AM 55.4 °F 55.4 °F 100% 30.09 in 0.5 mi SSE 9.2 mph - N/A Fog Fog
9:29 AM 57.2 °F 57.2 °F 100% 30.09 in 1.0 mi SSE 9.2 mph - 0.00 in   Overcast
9:54 AM 57.0 °F 57.0 °F 100% 30.08 in 1.0 mi SSE 9.2 mph - 0.00 in   Light Drizzle
10:54 AM 59.0 °F 59.0 °F 100% 30.07 in 1.5 mi South 10.4 mph - 0.00 in   Overcast
11:52 AM 60.8 °F 60.8 °F 100% 30.05 in 2.0 mi South 11.5 mph - 0.00 in   Overcast
11:54 AM 60.1 °F 60.1 °F 100% 30.05 in 2.0 mi South 11.5 mph - 0.00 in   Overcast
12:14 PM 60.8 °F 60.8 °F 100% 30.04 in 3.0 mi South 12.7 mph - N/A   Overcast
12:54 PM 62.1 °F 60.1 °F 93% 30.03 in 4.0 mi South 13.8 mph 21.9 mph 0.00 in   Overcast
1:21 PM 62.6 °F 60.8 °F 94% 30.02 in 5.0 mi South 13.8 mph - N/A   Overcast
1:49 PM 62.6 °F 60.8 °F 94% 30.01 in 7.0 mi South 12.7 mph - N/A   Overcast
1:54 PM 63.0 °F 60.1 °F 90% 30.00 in 7.0 mi South 11.5 mph - N/A   Overcast
2:54 PM 63.0 °F 59.0 °F 87% 29.99 in 9.0 mi South 12.7 mph - N/A   Overcast
3:35 PM 64.4 °F 60.8 °F 88% 29.99 in 9.0 mi South 12.7 mph - N/A   Overcast
3:54 PM 64.0 °F 60.1 °F 87% 29.99 in 10.0 mi South 12.7 mph - N/A   Overcast
4:54 PM 64.0 °F 60.1 °F 87% 29.98 in 10.0 mi South 15.0 mph - N/A   Mostly Cloudy
5:54 PM 62.1 °F 57.9 °F 86% 29.98 in 10.0 mi South 10.4 mph - N/A   Mostly Cloudy
6:54 PM 62.1 °F 57.9 °F 86% 29.97 in 10.0 mi South 15.0 mph - N/A   Mostly Cloudy
7:54 PM 62.1 °F 57.0 °F 84% 29.97 in 10.0 mi South 16.1 mph - N/A   Overcast
8:54 PM 62.1 °F 55.0 °F 78% 29.98 in 10.0 mi South 15.0 mph - N/A   Scattered Clouds
9:54 PM 63.0 °F 55.0 °F 75% 29.98 in 10.0 mi SSW 17.3 mph - N/A   Mostly Cloudy
10:54 PM 61.0 °F 55.0 °F 81% 29.98 in 10.0 mi SSW 15.0 mph - N/A   Scattered Clouds
11:54 PM 60.1 °F 54.0 °F 80% 29.98 in 10.0 mi SSW 13.8 mph - N/A   Scattered Clouds